Regional Weather Roundup
Issued by NWS Northern Indiana

Home | Current Version | Previous Version | Graphics & Text | Print | Product List | Glossary On
Versions: 1 2 3 4 5 6 7 8 9 10 11 12 13 14 15 16 17 18 19 20 21 22 23 24 25 26 27 28 29 30 31 32 33 34 35 36 37 38 39 40 41 42 43 44 45 46 47 48 49 50
000
ASUS43 KIWX 291910
RWRIWX

KIWX WEATHER ROUNDUP
NATIONAL WEATHER SERVICE NORTHERN INDIANA
300 PM EDT MON MAY 29 2017

NOTE: "FAIR" INDICATES FEW OR NO CLOUDS BELOW 12,000 FEET WITH NO
SIGNIFICANT WEATHER AND/OR OBSTRUCTIONS TO VISIBILITY.

* THESE STATIONS ARE NOT UNDER NWS QUALITY CONTROL. THEY ALSO MAY NOT
  REPORT WEATHER SUCH AS PRECIPITATION OR FOG.

INZ001>027-292000-
NORTHERN INDIANA

CITY           SKY/WX    TMP DP  RH WIND       PRES   REMARKS
GARY*          MOSUNNY   79  41  25 W26       29.84F
VALPARAISO     SUNNY     81  48  31 W20G31    29.85F
MICHIGAN CITY* MOSUNNY   75  45  33 SW14G28   29.84F
LAPORTE*       SUNNY     77  49  36 W21G28    29.85F
KNOX*          MOSUNNY   79  36  21 W20G29    29.84F
SOUTH BEND     PTSUNNY   77  46  33 W24G36    29.84S
ELKHART*       CLOUDY    75  45  33 W21G26    29.84S
GOSHEN         PTSUNNY   77  46  33 W21       29.84F
MONTICELLO*    MOSUNNY   80  45  28 W15G25    29.86S
LOGANSPORT*    PTSUNNY   79  50  36 W22       29.87F
ROCHESTER*     SUNNY     79  41  25 W14G26    29.86F
WARSAW*        PTSUNNY   77  46  33 W18G32    29.85F
ANGOLA*        SUNNY     79  48  34 W13       29.84F
FORT WAYNE     MOSUNNY   78  52  40 W16       29.87F
HUNTINGTON*    SUNNY     77  46  32 SW14G21   29.87F
PERU/GRISSOM   SUNNY     80  51  36 SW21      29.86F
MARION*        SUNNY     79  46  31 W15       29.90S

$$
INZ028>050-292000-
CENTRAL INDIANA

CITY           SKY/WX    TMP DP  RH WIND       PRES   REMARKS
LAFAYETTE      MOSUNNY   79  48  33 SW17G26   29.86F
KOKOMO*        MOSUNNY   79  50  36 W17G23    29.89F
MUNCIE*        SUNNY     81  45  28 W14G26    29.89F
INDIANAPOLIS   MOSUNNY   80  52  37 W21G28    29.90F

$$
MIZ043>046-050>051-056>058-064>065-071>073-077>080-292000-
SOUTHWEST LOWER MICHIGAN

CITY           SKY/WX    TMP DP  RH WIND       PRES   REMARKS
BATTLE CREEK   LGT RAIN  72  45  37 W12G23    29.83S
BENTON HARBOR  SUNNY     76  45  33 W20G30    29.83S
COLDWATER*     CLOUDY    77  44  31 W15G24    29.83S
HILLSDALE*     PTSUNNY   73  45  35 SW9G23    29.83F
HOLLAND        SUNNY     75  47  36 W22G32    29.82S
GRAND RAPIDS   CLOUDY    74  46  36 W29G37    29.80S
KALAMAZOO      CLOUDY    74  44  34 SW15G26   29.82F
STURGIS*       CLOUDY    73  46  38 W17G24    29.83S
THREE RIVERS*  CLOUDY    73  47  38 W10       29.84S

$$
OHZ001>008-015>018-024>025-292000-
NORTHWEST OHIO

CITY           SKY/WX    TMP DP  RH WIND       PRES   REMARKS
WAUSEON*       PTSUNNY   79  52  38 W18       29.84F
DEFIANCE       MOSUNNY   76  50  40 SW10G22   29.86S
FINDLAY        SUNNY     80  49  33 W17G28    29.86S
TOLEDO EXPRESS MOSUNNY   79  49  34 W20G30    29.84S
TOLEDO METCALF MOSUNNY   80  51  36 SW18G24   29.84S
LIMA           MOSUNNY   78  53  41 SW17G25   29.89R

$$
AND FOR LAKE MICHIGAN COASTAL AND OPEN LAKE BUOY OBSERVATIONS

STATION/POSITION TEMP    WIND        PRES    VSBY  WAVE
                 AIR SEA DIR/SP/G                  HT/PER
                 (F)     (DEG/KT/KT) (MB)    (MI)  (FT/S)
CALUMET HARBOR    76     240/  9/ 18 1009.8R
MICHIGAN CITY     68     230/ 18/ 21   N/A
BURNS HARBOR      73     240/ 24/ 30 1010.5F
SOUTH LAKE BUOY   52 48  230/  8/  8 1009.7R         1
4 MI NW BRIDGMAN  62 59  260/  8/ 10 1010.4          1/ 2
MICHIGAN CITY     64 56  250/ 10/ 12   N/A           1/ 2

$$
&&




USA.gov is the U.S. government's official web portal to all federal, state and local government web resources and services.